Regional Weather Roundup
Issued by NWS

Home | Current Version | Previous Version | Graphics & Text | Print | Product List | Glossary On
Versions: 1 2 3 4 5 6 7 8 9 10 11 12 13 14 15 16 17 18 19 20 21 22 23 24 25 26 27 28 29 30 31 32 33 34 35 36 37 38 39 40 41 42 43 44 45 46 47 48 49 50
000
ASUS43 KMPX 110310
RWRMN
WEATHER ROUNDUP FOR MINNESOTA
NATIONAL WEATHER SERVICE TWIN CITIES/CHANHASSEN MN
900 PM CST SUN DEC 10 2017


NOTE: "FAIR" INDICATES FEW OR NO CLOUDS BELOW 12,000 FEET WITH NO
SIGNIFICANT WEATHER AND/OR OBSTRUCTIONS TO VISIBILITY. N/A MEANS
CURRENT SKY AND/OR WEATHER CONDITIONS ARE NOT AVAILABLE.

MNZ060>063-068>070-110400-
   Twin Cities Metro

CITY           SKY/WX    TMP DP  RH WIND       PRES   REMARKS
TWIN CITIES    CLOUDY    25  21  85 S6        30.00F WCI  18
ST PAUL        CLOUDY    20  19  96 S5        30.02F WCI  13
CRYSTAL        PTCLDY    19  15  84 CALM      29.99F FOG
LAKEVILLE      CLOUDY    18  18 100 CALM      30.00F
EDEN PRAIRIE   CLOUDY    22  19  89 S5        29.99F WCI  16
SOUTH ST PAUL  CLOUDY    20  19  96 CALM      30.01F
LAKE ELMO      FAIR      18  16  93 CALM      30.01F
$$
MNZ001>005-007-008-013>017-022>024-027-028-110400-
   Northwest Minnesota

CITY           SKY/WX    TMP DP  RH WIND       PRES   REMARKS
BEMIDJI        CLOUDY    18  15  88 S3        29.89F
HALLOCK        LGT SNOW  25  21  86 S16       29.82F WCI  12
ROSEAU         LGT SNOW  19  16  86 S9        29.84F WCI   9
WARROAD        CLOUDY    18  14  86 S7        29.86F WCI   8
THIEF RVR FALL FLURRIES  21  19  92 S12       29.85F WCI   9
CROOKSTON      FLURRIES  25  21  86 S12       29.86F WCI  14
FOSSTON        LGT SNOW  19  18  93 S9        29.88F WCI   9
DETROIT LAKES  CLOUDY    25  21  86 S5        29.91F WCI  19
MOORHEAD       RAIN      27  23  86 S6        29.91F WCI  20
PARK RAPIDS    CLOUDY    21  18  88 SW3       29.91F
MAHNOMEN       FLURRIES  23  20  88 S8        29.88F WCI  14
$$
MNZ006-009>011-018-025>026-110400-
   North Central Minnesota

CITY           SKY/WX    TMP DP  RH WIND       PRES   REMARKS
BAUDETTE       CLOUDY    17  14  88 S3        29.88F
FLAG ISLAND    CLOUDY    16  12  86 S13       29.86F WCI   2
INTL FALLS     CLOUDY     9   5  84 CALM      29.91F
WASKISH        CLOUDY    19  16  86 S3        29.89F
BIG FORK       CLOUDY    12   9  85 CALM      29.91F
GRAND RAPIDS   CLOUDY    15  13  91 SE3       29.93F
ORR            CLOUDY     9   5  85 SE3       29.90F
COOK           CLOUDY     3   1  92 CALM      29.93F
WALKER         CLOUDY    19  16  86 S3        29.91F
$$
MNZ012-019>021-037-110400-
   Northeast Minnesota

CITY           SKY/WX    TMP DP  RH WIND       PRES   REMARKS
DULUTH         MOCLDY    10   8  92 CALM      29.94F
ELY            CLOUDY    -2  -6  84 CALM      29.93F
HIBBING        CLOUDY     4   2  91 CALM      29.93F
EVELETH        CLOUDY     1  -2  85 CALM      29.94F
DULUTH HARBOR  PTCLDY    18  12  79 CALM      30.01F
TWO HARBORS    CLEAR      9   3  78 NW3       29.96S
G MARAIS ARPRT CLEAR      0  -6  78 CALM      29.91R
$$
MNZ029>031-032-039>041-046>048-054>057-064-110400-
   West Central Minnesota

CITY           SKY/WX    TMP DP  RH WIND       PRES   REMARKS
FERGUS FALLS   CLOUDY    27  21  80 S5        29.97F WCI  21
MORRIS         CLOUDY    30  25  80 S5        29.95F WCI  25
ALEXANDRIA     CLOUDY    26  22  84 S3        29.94F
ELBOW LAKE     CLOUDY    28  23  82 S7        29.95F WCI  20
WADENA         CLOUDY    21  18  86 CALM      29.92F
GLENWOOD       CLOUDY    27  25  93 S5        29.95F WCI  21
BENSON         CLOUDY    30  25  80 CALM      29.98S
ORTONVILLE     CLOUDY    32  25  74 CALM      29.95F
MADISON        PTCLDY    36  28  75 S7        29.96S
WILLMAR        CLOUDY    30  25  80 CALM      29.98S
$$
MNZ033>034-036-042>043-049>051-058-059-110400-
   Central Minnesota

CITY           SKY/WX    TMP DP  RH WIND       PRES   REMARKS
ST CLOUD       CLOUDY    20  17  88 CALM      29.97F
SAUK CENTRE    CLOUDY    24  21  89 CALM      29.95F
PAYNESVILLE    CLOUDY    27  24  87 CALM      29.97S
AITKIN         CLOUDY    14  12  92 CALM      29.93F
PINE RIVER     CLOUDY    18  16  93 CALM      29.97S
BRAINERD       CLOUDY    20  16  84 CALM      29.95F
STAPLES        CLOUDY    21  18  86 CALM      29.94F
LONG PRAIRIE   MOCLDY    21  19  93 CALM      29.94F
LITTLE FALLS   CLOUDY    23  18  80 CALM      29.97F
LITCHFIELD     CLOUDY    27  23  86 CALM      29.97F
BUFFALO        PTCLDY    19  17  89 CALM      30.00F
MAPLE LAKE     CLOUDY    24  22  93 S3        29.99F
HUTCHINSON     CLOUDY    26  24  91 CALM      29.98F
$$
MNZ037-044-045-052-053-110400-
   East Central Minnesota

CITY           SKY/WX    TMP DP  RH WIND       PRES   REMARKS
PRINCETON      CLOUDY    18  16  93 CALM      29.98S
MORA           CLOUDY    14  12  92 CALM      29.99F
CAMBRIDGE      PTCLDY    21  16  79 CALM      29.98F
RUSH CITY      CLOUDY    15  14  93 SE3       29.99F
MOOSE LAKE     CLOUDY    14  12  92 CALM      29.95F
HINCKLEY       FAIR      14  12  92 CALM      29.98F
CLOQUET        CLEAR     16  10  79 CALM      29.95F
MCGREGOR       CLOUDY    18  14  86 SE3       29.95F
$$
MNZ071>073-080-081-089-090-097-098-110400-
   Southwest Minnesota

CITY           SKY/WX    TMP DP  RH WIND       PRES   REMARKS
MONTEVIDEO     CLOUDY    32  25  74 CALM      29.97F
GRANITE FALLS  CLOUDY    33  27  79 S6        29.99F WCI  27
CANBY          MOCLDY    33  28  83 CALM      29.97F
MARSHALL       CLOUDY    31  26  82 S6        29.97F WCI  25
REDWOOD FALLS  CLOUDY    32  25  75 S6        29.97F WCI  26
OLIVIA         CLOUDY    32  27  80 S3        29.97F
PIPESTONE      CLOUDY    32  27  80 SW8       29.96F WCI  25
WINDOM         CLOUDY    30  19  64 S3        29.98F
WORTHINGTON    CLOUDY    33  28  81 SW8       29.99F WCI  26
JACKSON        CLOUDY    32  28  86 MISG      29.99F
TRACY          CLOUDY    33  29  83 S5        29.96F WCI  29
$$
MNZ065>067-074>077-082>085-091>093-110400-
   South Central Minnesota

CITY           SKY/WX    TMP DP  RH WIND       PRES   REMARKS
MANKATO        CLOUDY    28  24  85 S6        30.01F WCI  22
NEW ULM        CLOUDY    30  25  80 S5        29.99F WCI  25
ST JAMES       PTCLDY    30  27  86 S5        30.01F WCI  25
FAIRMONT       CLOUDY    31  27  85 S5        30.01F WCI  26
GLENCOE        MOCLDY    23  21  92 CALM      29.98F
FARIBAULT      CLOUDY    18  16  93 CALM      30.01F
WASECA         CLOUDY    19  18  93 SE5       30.02F WCI  13
ALBERT LEA     CLOUDY    27  21  80 S3        30.01F
$$
MNZ078>079-086>088-094>096-110400-
   Southeast Minnesota

CITY           SKY/WX    TMP DP  RH WIND       PRES   REMARKS
ROCHESTER      CLOUDY    20  19  96 S5        30.02F WCI  13
RED WING       CLOUDY    18  12  79 CALM      30.02F
STANTON        CLOUDY    18  16  90 CALM      30.00F
DODGE CENTER   CLOUDY    18  16  93 S5        30.01F WCI  11
WINONA         CLOUDY    30  21  69 CALM      30.07F
AUSTIN         CLOUDY    19  18  93 CALM      30.01F
PRESTON        CLOUDY    25  20  80 CALM      30.03F
$$
ABBREVIATIONS USED IN REMARKS
   TC - TEMPERATURES IN CELSIUS
  WCI - WIND CHILL INDEX
   HX - HEAT INDEX
  VSB - VISIBILITY
$$



USA.gov is the U.S. government's official web portal to all federal, state and local government web resources and services.